Regional Weather Roundup
Issued by NWS

Home | Current Version | Previous Version | Text Only | Print | Product List | Glossary Off
Versions: 1 2 3 4 5 6 7 8 9 10 11 12 13 14 15 16 17 18 19 20 21 22 23 24 25 26 27 28 29 30 31 32 33 34 35 36 37 38 39 40 41 42 43 44 45 46

000
ASUS45 KCYS 242110
RWRWY

WYOMING REGIONAL WEATHER ROUNDUP
NATIONAL WEATHER SERVICE CHEYENNE WY
200 PM MST WED DEC 24 2014

NOTE:  "FAIR" INDICATES FEW OR NO CLOUDS BELOW 12,000 FEET
WITH NO SIGNIFICANT WEATHER AND/OR OBSTRUCTIONS TO VISIBILITY.

WYZ001-242200-
YELLOWSTONE NATIONAL PARK

CITY           SKY/WX    TMP DP  RH WIND       PRES   REMARKS
LK YELLOWSTONE   N/A     22  18  85 CALM      29.68F
W YELLOWSTONE  NOT AVBL

$$
WYZ002>013-054>058-071-098>099-242200-
NORTHERN WYOMING

CITY           SKY/WX    TMP DP  RH WIND       PRES   REMARKS
JACKSON        CLOUDY    30  25  80 S20       29.69F WCI  18
CODY           CLOUDY    39  21  48 SW13G20   29.53F WCI  32
GREYBULL       FAIR      26  17  68 E5        29.59F WCI  20
WORLAND        FAIR      21  14  74 CALM      29.59F
SHERIDAN       PTSUNNY   38  29  70 N5        29.46F WCI  34
BUFFALO        PTSUNNY   37  23  56 CALM      29.50F
GILLETTE       FAIR      41  22  46 SW16      29.50F
HULETT           N/A    N/A N/A N/A MISG        N/A
NEWCASTLE      FAIR      37  21  52 SE5       29.57F WCI  34

$$
WYZ014>020-022>026-101>103-242200-
CENTRAL WYOMING

CITY           SKY/WX    TMP DP  RH WIND       PRES   REMARKS
BIG PINEY      FAIR      28  16  60 NE6       29.77F WCI  22
PINEDALE       CLOUDY    23  18  80 E3        29.77F
DUBOIS         NOT AVBL
LANDER         FAIR      28  16  60 NW8       29.60F WCI  20
RIVERTON       FAIR      26  15  63 NE5       29.62F WCI  20
CASPER         FAIR      33  19  56 SW28G36   29.63F WCI  20
DOUGLAS        FAIR      44  19  36 W16       29.59F

$$
WYZ021-027>030-104>119-242200-
SOUTHERN WYOMING

CITY           SKY/WX    TMP DP  RH WIND       PRES   REMARKS
EVANSTON       FAIR      34  21  59 SW16      29.77F WCI  24
KEMMERER       FAIR      32  19  59 W6        29.77F WCI  26
FORT BRIDGER   FAIR      39  26  59 SW5       29.80F
ROCK SPRINGS   FAIR      35  24  64 S8        29.77F WCI  29
DIXON          FAIR      30  12  47 SW8       29.91F WCI  22
RAWLINS        PTSUNNY   28  15  58 SW17G31   29.75F WCI  16
SARATOGA       FAIR      32  18  55 SE6       29.81F WCI  26
LARAMIE        FAIR      31  16  54 S24       29.69F WCI  17
CHEYENNE       FAIR      39  17  41 NW15G29   29.64F WCI  31
TORRINGTON     FAIR      46  20  35 W25G33    29.60F
PINE BLUFFS    FAIR      43  19  39 W15       29.66F

$$


USA.gov is the U.S. government's official web portal to all federal, state and local government web resources and services.